sat.trackr.live / text

‹ back to catalog

FIREFLY-1

NORAD 62701 · 2025-009CW

PAYLOAD ACTIVE UNKNOWN

§ Identity

Operator
Country
IND
Launch date
2025-01-14
Launch site
AFWTR
Launch vehicle
Mass (kg)
RCS (m²)

External: N2YO · Heavens-Above · Gunter

§ Orbital elements

Epoch: 2026-05-25T04:02:56.148288Z

Period
96.46 min
Inclination
97.7069°
Eccentricity
0.0005228
Mean motion
14.92798155 rev/d
Perigee alt
585.6 km
Apogee alt
592.9 km
Semi-major
6,967.4 km
B*
1.3816e-4
RAAN
223.7769°
Arg perigee
54.3311°
Mean anomaly
305.8394°
Rev number
7,388

§ Raw data

FIREFLY-11 62701U 25009CW  26145.16870542  .00001373  00000+0  13816-3 0  99982 62701  97.7069 223.7769 0005228  54.3311 305.8394 14.92798155 73885

JSON: /api/v1/satellites/62701 · /tle

For live sub-satellite position, see the globe view (requires WebGL).

§ Visibility from observer

Set your observer location to see the next 7 days of passes ≥ 10°. The values pass through the URL so the page stays shareable.

No JS? Fill the form by hand. The geolocation button needs JavaScript.

§ Radio — SatNOGS DB

ModeDescriptionDownlinkUplink
FM Mode S - Transmitter 2.243 GHz
FM Mode X - Transmitter 8.100 GHz

2 transmitters · refreshed weekly from db.satnogs.org